Location: Unspecified
(0.0000°N, 0.0000°E)
Time: 23:13:39
(UTC+00:00)

ISS - Pass Details

Date: 20 January 2017
Orbit: 401 x 408 km, 51.6° (Epoch: 24 August)

Event Time Altitude Azimuth Distance (km) Brightness Sun altitude
Rises 18:36:25 0° 193° (SSW) 2,359 0.5 -5.9°
Reaches altitude 10° 18:38:56 10° 174° (S) 1,489 -0.8 -6.5°
Maximum altitude 18:41:24 19° 126° (SE) 1,050 -2.0 -7.1°
Drops below altitude 10° 18:43:51 10° 78° (ENE) 1,474 -1.7 -7.7°
Enters shadow 18:43:55 10° 77° (ENE) 1,496 -1.6 -7.7°
